Weather reports worldwide

Advertisment
S. Maria Di Leuca, Italy (16360): temperature & dewpoint: 12.08.2019 03:00:00 - 18.08.2019 03:00:00 (CEST)S. Maria Di Leuca, Italy (16360): wind speed: 12.08.2019 03:00:00 - 18.08.2019 03:00:00 (CEST)S. Maria Di Leuca, Italy (16360): wind direction: 12.08.2019 03:00:00 - 18.08.2019 03:00:00 (CEST)S. Maria Di Leuca, Italy (16360): reduced air pressure: 12.08.2019 03:00:00 - 18.08.2019 03:00:00 (CEST)S. Maria Di Leuca, Italy (16360): visibility: 12.08.2019 03:00:00 - 18.08.2019 03:00:00 (CEST)S. Maria Di Leuca, Italy (16360): sunshine duration: 12.08.2019 03:00:00 - 18.08.2019 03:00:00 (CEST)
Date & Time tt [°C] td [°C] ff [km/h] ff [kn] dd ppp [hPa] vv [km] sd [min]
18.08.2019 03:00:00 - - - - - - - -
18.08.2019 02:00:00 - - - - - - - -
18.08.2019 01:00:00 - - - - - - - -
18.08.2019 00:00:00 - - - - - - - -
17.08.2019 23:00:00 - - - - - - - -
17.08.2019 22:00:00 - - - - - - - -
17.08.2019 21:00:00 - - - - - - - -
17.08.2019 20:00:00 27,4 20,0 13 7 NNE 1013,3 20 48
17.08.2019 19:00:00 28,0 16,9 16 9 N 1013,2 20 60
17.08.2019 18:00:00 28,0 16,6 16 9 NNE 1013,2 20 60
17.08.2019 17:00:00 28,0 24,6 11 6 WSW 1012,9 20 30
17.08.2019 16:00:00 28,0 23,8 8 4 SE 1013,4 20 30
17.08.2019 15:00:00 27,8 24,0 13 7 NE 1013,4 20 42
17.08.2019 14:00:00 28,2 21,5 21 11 NE 1013,7 20 60
17.08.2019 13:00:00 28,2 18,3 13 7 NNE 1013,7 20 60
17.08.2019 12:00:00 28,2 19,2 18 10 N 1013,7 20 60
17.08.2019 11:00:00 27,2 19,3 21 11 N 1013,8 20 60
17.08.2019 10:00:00 26,6 21,8 16 9 N 1013,8 20 60
17.08.2019 09:00:00 26,0 22,1 16 9 N 1013,7 20 60
17.08.2019 08:00:00 25,0 22,7 18 10 N 1013,8 20 60
17.08.2019 07:00:00 - - - - - - - -
17.08.2019 06:00:00 - - - - - - - -
17.08.2019 05:00:00 - - - - - - - -
17.08.2019 04:00:00 - - - - - - - -
17.08.2019 03:00:00 - - - - - - - -
17.08.2019 02:00:00 - - - - - - - -
17.08.2019 01:00:00 - - - - - - - -
17.08.2019 00:00:00 - - - - - - - -
16.08.2019 23:00:00 - - - - - - - -
16.08.2019 22:00:00 - - - - - - - -
16.08.2019 21:00:00 - - - - - - - -
16.08.2019 20:00:00 27,4 14,4 13 7 N 1012,6 20 0
16.08.2019 19:00:00 27,8 15,8 13 7 NNE 1012,1 20 36
16.08.2019 18:00:00 27,8 24,0 13 7 NNE 1011,8 20 60
16.08.2019 17:00:00 27,8 24,0 11 6 SW 1011,8 20 60
16.08.2019 16:00:00 27,4 24,9 15 8 S 1012,0 10 60
16.08.2019 15:00:00 27,4 22,4 11 6 S 1011,1 20 60
16.08.2019 14:00:00 27,4 22,4 15 8 SW 1011,2 20 60
16.08.2019 13:00:00 27,2 22,6 18 10 W 1012,4 20 60
16.08.2019 12:00:00 26,8 24,1 22 12 W 1012,4 20 60
16.08.2019 11:00:00 27,8 17,4 11 6 NW 1012,4 20 60
16.08.2019 10:00:00 26,2 20,8 11 6 N 1012,5 20 60
16.08.2019 09:00:00 25,4 22,9 16 9 N 1012,3 20 60
16.08.2019 08:00:00 25,2 23,4 18 10 N 1012,2 20 60
16.08.2019 07:00:00 - - - - - - - -
16.08.2019 06:00:00 - - - - - - - -
16.08.2019 05:00:00 - - - - - - - -
16.08.2019 04:00:00 - - - - - - - -
16.08.2019 03:00:00 - - - - - - - -
16.08.2019 02:00:00 - - - - - - - -
16.08.2019 01:00:00 - - - - - - - -
16.08.2019 00:00:00 - - - - - - - -
15.08.2019 23:00:00 - - - - - - - -
15.08.2019 22:00:00 - - - - - - - -
15.08.2019 21:00:00 - - - - - - - -
15.08.2019 20:00:00 27,8 20,1 24 13 N 1010,8 20 0
15.08.2019 19:00:00 27,8 18,8 22 12 NNE 1010,1 20 60
15.08.2019 18:00:00 28,8 22,5 24 13 N 1010,0 20 60
15.08.2019 17:00:00 28,8 20,3 24 13 N 1009,8 20 60
15.08.2019 16:00:00 29,2 20,1 21 11 N 1009,7 20 60
15.08.2019 15:00:00 29,4 18,8 22 12 N 1009,9 20 60
15.08.2019 14:00:00 29,4 18,8 21 11 NNW 1009,9 20 -
15.08.2019 13:00:00 28,8 19,7 21 11 NNW 1010,3 20 60
15.08.2019 12:00:00 28,8 19,7 21 11 NNW 1010,3 20 60
15.08.2019 11:00:00 28,2 22,2 24 13 N 1010,2 20 30
15.08.2019 10:00:00 27,6 24,5 24 13 N 1010,1 20 48
15.08.2019 09:00:00 27,4 23,9 24 13 W 1009,4 20 60
15.08.2019 08:00:00 27,0 25,2 26 14 N 1009,4 20 -
15.08.2019 07:00:00 - - - - - - - -
15.08.2019 06:00:00 - - - - - - - -
15.08.2019 05:00:00 - - - - - - - -
15.08.2019 04:00:00 - - - - - - - -
15.08.2019 03:00:00 - - - - - - - -
15.08.2019 02:00:00 - - - - - - - -
15.08.2019 01:00:00 - - - - - - - -
15.08.2019 00:00:00 - - - - - - - -
14.08.2019 23:00:00 - - - - - - - -
14.08.2019 22:00:00 - - - - - - - -
14.08.2019 21:00:00 - - - - - - - -
14.08.2019 20:00:00 29,2 25,4 21 11 NNE 1007,9 10 0
14.08.2019 19:00:00 30,8 19,2 22 12 NNE 1007,5 10 48
14.08.2019 18:00:00 31,0 23,7 21 11 NNE 1007,6 10 30
14.08.2019 17:00:00 31,8 21,9 18 10 NNE 1007,7 10 60
14.08.2019 16:00:00 32,0 17,5 24 13 N 1007,7 10 36
14.08.2019 15:00:00 31,8 23,1 26 14 NNE 1007,7 10 60
14.08.2019 14:00:00 31,4 27,1 26 14 NE 1007,8 10 60
14.08.2019 13:00:00 31,2 28,4 24 13 ENE 1008,1 12 60
14.08.2019 12:00:00 31,4 29,2 21 11 W 1008,0 10 60
14.08.2019 11:00:00 30,6 25,7 21 11 W 1008,1 10 60
14.08.2019 10:00:00 30,0 28,2 8 4 W 1008,0 10 60
14.08.2019 09:00:00 29,4 25,6 8 4 W 1008,0 12 60
14.08.2019 08:00:00 29,6 22,1 4 2 NW 1007,8 10 60
14.08.2019 07:00:00 - - - - - - - -
14.08.2019 06:00:00 - - - - - - - -
14.08.2019 05:00:00 - - - - - - - -
14.08.2019 04:00:00 - - - - - - - -
14.08.2019 03:00:00 - - - - - - - -
14.08.2019 02:00:00 - - - - - - - -
14.08.2019 01:00:00 - - - - - - - -
14.08.2019 00:00:00 - - - - - - - -
13.08.2019 23:00:00 - - - - - - - -
13.08.2019 22:00:00 - - - - - - - -
13.08.2019 21:00:00 - - - - - - - -
13.08.2019 20:00:00 30,0 28,6 8 4 WSW 1007,6 10 0
13.08.2019 19:00:00 30,6 29,9 8 4 NE 1007,2 10 60
13.08.2019 18:00:00 31,2 29,9 8 4 E 1007,4 10 60
13.08.2019 17:00:00 31,0 29,4 9 5 E 1007,5 10 60
13.08.2019 16:00:00 31,0 29,2 8 4 SE 1007,6 10 60
13.08.2019 15:00:00 31,0 29,2 5 3 SSW 1008,9 10 60
13.08.2019 14:00:00 31,0 26,5 9 5 SW 1008,9 10 60
13.08.2019 13:00:00 31,2 28,6 9 5 SSW 1008,9 12 60
13.08.2019 12:00:00 32,0 29,0 11 6 W 1008,9 10 60
13.08.2019 11:00:00 31,6 27,7 9 5 E 1008,8 10 60
13.08.2019 10:00:00 31,6 26,2 4 2 N 1008,7 10 60
13.08.2019 09:00:00 30,4 22,8 9 5 NNE 1008,8 12 60
13.08.2019 08:00:00 29,8 23,3 16 9 NE 1008,7 10 60
13.08.2019 07:00:00 - - - - - - - -
13.08.2019 06:00:00 - - - - - - - -
13.08.2019 05:00:00 - - - - - - - -
13.08.2019 04:00:00 - - - - - - - -
13.08.2019 03:00:00 - - - - - - - -
13.08.2019 02:00:00 - - - - - - - -
13.08.2019 01:00:00 - - - - - - - -
13.08.2019 00:00:00 - - - - - - - -
12.08.2019 23:00:00 - - - - - - - -
12.08.2019 22:00:00 - - - - - - - -
12.08.2019 21:00:00 - - - - - - - -
12.08.2019 20:00:00 30,6 27,6 11 6 NNE 1008,1 20 0
12.08.2019 19:00:00 30,6 29,3 2 1 S 1008,1 20 60
12.08.2019 18:00:00 31,0 26,9 4 2 ENE 1008,2 20 60
12.08.2019 17:00:00 31,0 28,2 5 3 S 1008,8 20 60
12.08.2019 16:00:00 31,0 27,8 8 4 SSE 1009,0 20 60
12.08.2019 15:00:00 31,0 28,6 8 4 SSW 1009,6 20 60
12.08.2019 14:00:00 31,0 28,6 8 4 SSW 1010,1 20 60
12.08.2019 13:00:00 30,0 26,0 9 5 ESE 1010,5 20 60
12.08.2019 12:00:00 30,0 26,0 8 4 SE 1010,5 20 60
12.08.2019 11:00:00 30,0 25,5 8 4 SSW 1010,3 20 60
12.08.2019 10:00:00 29,4 26,8 8 4 SW 1010,3 20 60
12.08.2019 09:00:00 29,4 25,0 8 4 NNE 1010,3 20 60
12.08.2019 08:00:00 28,6 23,7 13 7 N 1010,4 20 60
12.08.2019 07:00:00 - - - - - - - -
12.08.2019 06:00:00 - - - - - - - -
12.08.2019 05:00:00 - - - - - - - -
12.08.2019 04:00:00 - - - - - - - -
12.08.2019 03:00:00 - - - - - - - -

tt = temperature
td = dewpoint
ff = wind speed
dd = wind direction
ppp = reduced air pressure
vv = visibility
sd = sunshine duration

Next stations